Waarnemingen

Advertentie
Mijn weer
Fair Isle, Groot Brittannië (3008): temperatuur & dauwpunt: 26.03.2020 18:00:00 - 01.04.2020 18:00:00 (BST)Fair Isle, Groot Brittannië (3008): temperatuur -20cm & temperatuur -100cm: 26.03.2020 18:00:00 - 01.04.2020 18:00:00 (BST)Fair Isle, Groot Brittannië (3008): windsnelheid & windstoten: 26.03.2020 18:00:00 - 01.04.2020 18:00:00 (BST)Fair Isle, Groot Brittannië (3008): windrichting: 26.03.2020 18:00:00 - 01.04.2020 18:00:00 (BST)Fair Isle, Groot Brittannië (3008): luchtdruk: 26.03.2020 18:00:00 - 01.04.2020 18:00:00 (BST)Fair Isle, Groot Brittannië (3008): zicht: 26.03.2020 18:00:00 - 01.04.2020 18:00:00 (BST)Fair Isle, Groot Brittannië (3008): neerslag: 26.03.2020 18:00:00 - 01.04.2020 18:00:00 (BST)
Datum & Tijd tt [°C] td [°C] tt -20cm [°C] tt -100cm [°C] ff [km/u] ff [kn] fx [km/u] fx [kn] dd ppp [hPa] vv [km] rr [mm]
01.04.2020 18:00:00 7,2 1,9 - - 37 20 67 36 W 1008,6 11 0,0
01.04.2020 17:00:00 7,3 2,1 - - 48 26 70 38 W 1008,8 12 0,0
01.04.2020 16:00:00 7,4 3,4 - - 39 21 63 34 W 1009,4 14 0,0
01.04.2020 15:00:00 7,6 2,8 - - 37 20 65 35 W 1009,5 14 0,4
01.04.2020 14:00:00 7,3 2,5 - - 37 20 70 38 W 1009,7 14 0,0
01.04.2020 13:00:00 8,1 4,2 - - 41 22 59 32 W 1009,6 14 0,0
01.04.2020 12:00:00 7,4 6,0 - - 28 15 63 34 W 1009,8 11 0,2
01.04.2020 11:00:00 7,6 6,8 - - 50 27 65 35 WZW 1010,0 7 0,0
01.04.2020 10:00:00 6,9 6,0 6,4 6,0 46 25 70 38 WZW 1010,8 6 0,2
01.04.2020 09:00:00 7,0 5,5 - - 52 28 70 38 WZW 1011,5 8 0,0
01.04.2020 08:00:00 7,2 5,5 - - 46 25 63 34 WZW 1012,7 8 0,0
01.04.2020 07:00:00 7,1 5,3 - - 41 22 55 30 WZW 1013,8 9 0,0
01.04.2020 06:00:00 7,0 5,2 - - 39 21 52 28 WZW 1014,9 9 0,0
01.04.2020 05:00:00 6,6 4,6 - - 35 19 61 33 W 1015,9 12 0,0
01.04.2020 04:00:00 6,4 4,2 - - 35 19 54 29 W 1017,1 13 0,0
01.04.2020 03:00:00 6,3 3,9 - - 35 19 50 27 W 1018,6 16 0,0
01.04.2020 02:00:00 6,3 4,1 - - 34 18 52 28 W 1019,6 12 0,0
01.04.2020 01:00:00 6,5 4,4 - - 29 16 48 26 W 1020,8 13 0,0
01.04.2020 00:00:00 6,9 4,9 - - 29 16 48 26 W 1021,7 10 0,0
31.03.2020 23:00:00 7,0 5,1 - - 26 14 48 26 W 1022,9 10 0,0
31.03.2020 22:00:00 7,2 5,3 - - 24 13 - - W 1023,6 10 0,0
31.03.2020 21:00:00 7,5 4,8 - - 28 15 54 29 W 1024,3 12 0,0
31.03.2020 20:00:00 7,5 5,0 - - 34 18 52 28 W 1024,9 11 0,0
31.03.2020 19:00:00 7,5 5,2 - - 31 17 50 27 W 1025,4 10 0,0
31.03.2020 18:00:00 7,7 5,4 - - 29 16 52 28 WNW 1025,5 12 0,0
31.03.2020 17:00:00 7,3 5,3 - - 31 17 50 27 W 1025,8 10 0,2
31.03.2020 16:00:00 6,8 4,9 - - 35 19 54 29 WNW 1026,6 4,7 0,0
31.03.2020 15:00:00 7,1 3,5 - - 31 17 59 32 W 1027,3 16 0,0
31.03.2020 14:00:00 7,1 4,8 - - 31 17 55 30 WNW 1027,9 10 0,0
31.03.2020 13:00:00 7,7 5,7 - - 29 16 54 29 W 1028,2 14 0,2
31.03.2020 12:00:00 7,2 4,7 - - 31 17 54 29 W 1028,7 18 0,0
31.03.2020 11:00:00 6,8 5,0 - - 24 13 48 26 WNW 1029,2 20 0,0
31.03.2020 10:00:00 5,6 4,2 6,2 6,0 28 15 50 27 W 1029,7 6 0,2
31.03.2020 09:00:00 5,6 3,6 - - 39 21 54 29 W 1030,1 12 0,0
31.03.2020 08:00:00 6,2 4,4 - - 28 15 50 27 W 1030,2 21 0,0
31.03.2020 07:00:00 6,3 4,0 - - 34 18 48 26 W 1030,5 3,4 0,0
31.03.2020 06:00:00 6,3 3,9 - - 28 15 48 26 WNW 1030,9 23 0,2
31.03.2020 05:00:00 5,6 3,9 - - 34 18 54 29 WNW 1031,3 35 0,0
31.03.2020 04:00:00 6,0 4,7 - - 29 16 46 25 W 1031,7 4,7 0,0
31.03.2020 03:00:00 5,7 4,6 - - 22 12 48 26 W 1032,3 29 0,2
31.03.2020 02:00:00 6,0 4,7 - - 24 13 - - W 1032,7 23 0,0
31.03.2020 01:00:00 5,8 4,5 - - 21 11 - - WNW 1033,4 40 0,2
31.03.2020 00:00:00 6,0 4,3 - - 28 15 - - WZW 1033,9 4,4 0,0
30.03.2020 23:00:00 5,7 3,7 - - 24 13 - - W 1034,4 13 0,0
30.03.2020 22:00:00 6,2 3,2 - - 15 8 - - W 1035,1 10 0,0
30.03.2020 21:00:00 6,5 3,9 - - 16 9 - - W 1035,1 18 0,0
30.03.2020 20:00:00 6,7 3,1 - - 18 10 - - W 1035,2 17 0,0
30.03.2020 19:00:00 7,0 4,1 - - 16 9 - - W 1035,4 17 0,0
30.03.2020 18:00:00 7,4 4,4 - - 16 9 - - WNW 1035,6 20 0,0
30.03.2020 17:00:00 7,8 4,5 - - 16 9 - - WNW 1035,8 21 0,0
30.03.2020 16:00:00 8,3 5,0 - - 15 8 - - WNW 1036,0 18 0,0
30.03.2020 15:00:00 8,2 4,6 - - 18 10 - - NW 1036,5 15 0,0
30.03.2020 14:00:00 8,7 5,4 - - 18 10 - - NW 1036,8 18 0,0
30.03.2020 13:00:00 8,4 4,7 - - 18 10 - - NNW 1036,8 20 0,0
30.03.2020 12:00:00 8,1 4,2 - - 22 12 - - NNW 1036,9 28 0,0
30.03.2020 11:00:00 8,1 4,1 - - 22 12 - - NNW 1037,2 19 0,0
30.03.2020 10:00:00 7,6 3,6 5,7 6,0 31 17 46 25 NW 1037,2 20 0,0
30.03.2020 09:00:00 7,7 4,2 - - 26 14 - - NNW 1037,1 16 0,0
30.03.2020 08:00:00 7,3 2,8 - - 28 15 - - NW 1036,9 26 0,0
30.03.2020 07:00:00 7,2 2,1 - - 31 17 48 26 NNW 1037,0 29 0,0
30.03.2020 06:00:00 7,0 2,5 - - 37 20 52 28 NNW 1037,0 23 0,0
30.03.2020 05:00:00 6,7 2,7 - - 34 18 59 32 NNW 1037,2 24 0,0
30.03.2020 04:00:00 6,5 3,1 - - 26 14 50 27 NW 1037,4 16 0,0
30.03.2020 03:00:00 6,4 3,2 - - 31 17 48 26 NNW 1037,8 16 0,0
30.03.2020 02:00:00 6,4 3,7 - - 31 17 48 26 NNW 1038,5 14 0,0
30.03.2020 01:00:00 6,3 4,0 - - 24 13 - - NW 1038,8 13 0,0
30.03.2020 00:00:00 6,2 3,6 - - 24 13 - - NNW 1039,0 14 0,0
29.03.2020 23:00:00 6,4 3,4 - - 28 15 - - NNW 1039,3 16 0,0
29.03.2020 22:00:00 6,5 2,5 - - 29 16 - - NNW 1039,6 16 0,0
29.03.2020 21:00:00 6,4 2,5 - - 24 13 - - NNW 1039,6 19 0,0
29.03.2020 20:00:00 6,3 2,7 - - 21 11 - - NNW 1039,8 16 0,0
29.03.2020 19:00:00 6,4 2,6 - - 28 15 - - NNW 1039,7 19 0,0
29.03.2020 18:00:00 6,3 3,4 - - 21 11 - - NW 1040,2 21 0,0
29.03.2020 17:00:00 6,6 3,0 - - 26 14 - - WNW 1040,5 18 0,0
29.03.2020 16:00:00 6,8 2,4 - - 24 13 46 25 NW 1040,7 18 0,0
29.03.2020 15:00:00 6,4 2,4 - - 22 12 52 28 NW 1041,3 16 0,0
29.03.2020 14:00:00 6,9 2,3 - - 29 16 55 30 WNW 1041,7 30 0,0
29.03.2020 13:00:00 6,1 2,1 - - 34 18 50 27 WNW 1042,5 19 0,0
29.03.2020 12:00:00 5,6 2,6 - - 26 14 54 29 W 1042,9 16 0,2
29.03.2020 11:00:00 5,8 1,3 - - 31 17 50 27 W 1043,4 35 0,0
29.03.2020 10:00:00 5,4 0,1 5,9 6,0 31 17 46 25 W 1044,0 27 0,0
29.03.2020 09:00:00 4,4 -1,7 - - 22 12 - - W 1044,8 35 0,0
29.03.2020 08:00:00 3,8 -3,4 - - 26 14 - - W 1045,4 50 0,0
29.03.2020 07:00:00 3,1 -4,4 - - 18 10 - - WNW 1045,8 50 0,0
29.03.2020 06:00:00 2,4 -5,5 - - 16 9 - - NW 1046,1 45 0,0
29.03.2020 05:00:00 2,3 -6,2 - - 22 12 46 25 NNW 1046,5 50 0,0
29.03.2020 04:00:00 2,4 -5,8 - - 24 13 - - NNW 1046,8 45 0,0
29.03.2020 03:00:00 2,3 -6,2 - - 29 16 48 26 NW 1046,9 45 0,0
29.03.2020 02:00:00 2,3 -4,6 - - 22 12 - - NNW 1047,4 35 0,0
29.03.2020 01:00:00 2,4 -4,7 - - 26 14 - - N 1047,1 35 0,0
29.03.2020 00:00:00 2,2 -5,4 - - 28 15 - - N 1046,7 45 0,0
28.03.2020 23:00:00 2,3 -5,0 - - 29 16 46 25 N 1046,4 40 0,0
28.03.2020 22:00:00 2,1 -6,2 - - 34 18 50 27 N 1046,3 45 0,0
28.03.2020 21:00:00 2,2 -5,6 - - 31 17 48 26 N 1045,9 45 0,0
28.03.2020 20:00:00 2,3 -5,5 - - 29 16 55 30 N 1045,4 45 0,0
28.03.2020 19:00:00 2,3 -5,9 - - 31 17 50 27 N 1044,7 45 0,0
28.03.2020 18:00:00 2,3 -4,0 - - 34 18 54 29 N 1044,1 35 0,0
28.03.2020 17:00:00 2,8 -4,8 - - 37 20 57 31 N 1043,7 26 0,0
28.03.2020 16:00:00 3,8 -2,6 - - 35 19 57 31 N 1043,4 35 0,0
28.03.2020 15:00:00 3,7 -4,1 - - 35 19 57 31 N 1043,0 30 0,0
28.03.2020 14:00:00 4,1 -4,3 - - 41 22 61 33 N 1042,7 21 0,0
28.03.2020 13:00:00 4,2 -2,1 - - 42 23 63 34 N 1042,2 24 0,0
28.03.2020 12:00:00 3,0 0,4 - - 39 21 70 38 N 1041,3 21 0,0
28.03.2020 11:00:00 3,8 -1,0 - - 41 22 63 34 NNW 1040,3 30 0,0
28.03.2020 10:00:00 4,5 -1,2 6,5 6,0 35 19 52 28 N 1039,1 25 0,0
28.03.2020 09:00:00 2,9 0,3 - - 35 19 65 35 N 1038,5 19 0,0
28.03.2020 08:00:00 2,4 -0,4 - - 42 23 63 34 N 1037,6 20 0,0
28.03.2020 07:00:00 4,2 -1,7 - - 34 18 48 26 NNW 1036,4 35 0,0
28.03.2020 06:00:00 3,7 -0,5 - - 35 19 54 29 NNW 1035,7 22 0,0
28.03.2020 05:00:00 4,5 0,0 - - 35 19 50 27 N 1035,3 18 0,0
28.03.2020 04:00:00 4,8 -0,6 - - 28 15 - - NNW 1035,1 17 0,0
28.03.2020 03:00:00 4,1 1,3 - - 26 14 54 29 N 1034,7 28 0,0
28.03.2020 02:00:00 6,1 -0,1 - - 28 15 55 30 WNW 1034,2 24 0,0
28.03.2020 01:00:00 5,5 1,2 - - 13 7 50 27 NW 1034,0 17 0,0
28.03.2020 00:00:00 6,2 0,6 - - 24 13 - - NNW 1033,7 24 0,0
27.03.2020 23:00:00 6,5 -0,1 - - 24 13 - - WNW 1033,5 25 0,0
27.03.2020 22:00:00 6,9 1,8 - - 18 10 - - NW 1033,1 20 0,0
27.03.2020 21:00:00 7,0 3,1 - - 22 12 - - NW 1032,7 17 0,0
27.03.2020 20:00:00 6,9 4,0 - - 18 10 - - WNW 1032,3 35 0,0
27.03.2020 19:00:00 7,2 4,6 - - 22 12 - - WNW 1031,8 35 0,0
27.03.2020 18:00:00 7,9 4,9 - - 16 9 - - W 1031,5 24 0,0
27.03.2020 17:00:00 8,4 4,7 - - 16 9 - - W 1031,5 21 0,0
27.03.2020 16:00:00 8,2 4,6 - - 21 11 - - W 1031,5 20 0,0
27.03.2020 15:00:00 8,2 4,8 - - 18 10 - - W 1031,3 14 0,0
27.03.2020 14:00:00 8,5 5,0 - - 18 10 - - W 1031,3 17 0,0
27.03.2020 13:00:00 8,0 5,3 - - 18 10 - - W 1031,2 16 0,0
27.03.2020 12:00:00 7,8 4,5 - - 21 11 - - W 1031,0 23 0,0
27.03.2020 11:00:00 7,6 5,1 - - 21 11 - - W 1030,5 17 0,0
27.03.2020 10:00:00 7,3 4,8 6,4 6,0 21 11 - - W 1030,2 25 0,0
27.03.2020 09:00:00 6,6 3,7 - - 21 11 - - W 1029,8 35 0,0
27.03.2020 08:00:00 6,3 4,1 - - 18 10 - - W 1029,4 20 0,0
27.03.2020 07:00:00 5,8 3,6 - - 16 9 - - WZW 1028,9 26 0,0
27.03.2020 06:00:00 5,9 4,0 - - 21 11 - - WZW 1028,7 23 0,0
27.03.2020 05:00:00 5,3 3,5 - - 16 9 - - WZW 1028,7 22 0,0
27.03.2020 04:00:00 5,1 3,4 - - 16 9 - - WZW 1028,8 21 0,0
27.03.2020 03:00:00 5,4 3,5 - - 22 12 - - WZW 1028,9 25 0,0
27.03.2020 02:00:00 5,2 3,7 - - 18 10 - - WZW 1028,9 26 0,0
27.03.2020 01:00:00 5,3 4,1 - - 13 7 - - ZW 1028,8 13 0,0
27.03.2020 00:00:00 5,5 3,8 - - 13 7 - - ZW 1028,8 12 0,0
26.03.2020 23:00:00 5,5 3,8 - - 13 7 - - ZW 1028,9 16 0,0
26.03.2020 22:00:00 5,1 3,5 - - 11 6 - - ZW 1029,0 18 0,0
26.03.2020 21:00:00 5,6 3,9 - - 11 6 - - ZW 1029,0 14 0,0
26.03.2020 20:00:00 5,4 3,6 - - 8 4 - - WZW 1028,7 21 0,0
26.03.2020 19:00:00 6,9 4,7 - - 11 6 - - WZW 1028,4 25 0,0
26.03.2020 18:00:00 - - - - - - - - - - - -

tt = temperatuur
td = dauwpunt
tt -20cm = temperatuur -20cm
tt -100cm = temperatuur -100cm
ff = windsnelheid
fx = windstoten
dd = windrichting
ppp = luchtdruk
vv = zicht
rr = neerslag

Weerstations in de omgeving